Location: Moscow
(30.9132°N, 94.8252°W)
Time: 05:06:17
(UTC+00:00)

Daily predictions for brighter satellites

Satellite Brightness Start Highest point End
(mag) Time Altitude Azimuth Time Altitude Azimuth Time Altitude Azimuth
Okean 2 Rocket 4.5 00:02:07 10° SE 00:05:06 18° E 00:08:00 10° NE
BREEZE M DEB (TANK) 4.1 00:04:19 10° SSW 00:07:46 19° SE 00:09:19 13° ESE
ERS-1 4.5 00:03:52 10° SSE 00:09:00 73° ENE 00:14:07 10° N
CZ-2D R/B 2.8 00:07:29 10° S 00:10:37 79° WSW 00:13:47 10° NNW
ISS -1.6 00:08:15 10° W 00:10:52 21° NW 00:13:28 10° NNE
SJ 16-02 2.3 00:08:48 10° SSE 00:12:20 25° E 00:15:05 14° NE
CZ-2D R/B 4.2 00:09:24 10° SE 00:12:55 29° ENE 00:16:29 10° NNE
Landsat 7 3.7 00:08:17 10° SSE 00:12:56 90° ENE 00:17:35 10° NNW
Timation 2 Rocket 4.3 00:07:48 10° SSW 00:14:36 82° WNW 00:21:32 10° NNE
SJ-12 3.9 00:12:27 10° S 00:16:14 75° W 00:20:02 10° NNW
Helios 1A Rocket 2.4 00:18:57 10° NNE 00:22:17 61° ESE 00:25:37 10° S
AQUARIUS 4.1 00:18:10 10° SSE 00:22:33 88° WSW 00:26:59 10° NNW
USA 215 3.2 00:17:45 10° SE 00:24:16 75° NE 00:30:47 10° NW
ATLAS 5 CENTAUR R/B 2.3 00:20:39 10° NNW 00:25:19 43° ENE 00:30:59 10° SE
DNEPR-1 R/B 3.9 00:21:18 10° NNW 00:26:07 80° ENE 00:31:55 10° SSE
Cosmos 371 Rocket 3.9 00:25:15 10° SSE 00:29:30 33° E 00:31:39 22° NE
Cosmos 1833 Rocket 2.7 00:24:13 10° NNW 00:29:53 85° WSW 00:35:30 10° SSE
Aureole 3 Rocket 2.4 00:26:31 10° S 00:29:55 74° W 00:32:57 10° N
MOS 1 Rocket 2.9 00:26:12 10° SSE 00:30:25 79° ENE 00:34:45 10° N
Cosmos 2058 3.3 00:31:55 10° NNE 00:35:34 34° E 00:39:11 10° SSE
Intelsat 5-1 Rocket 4.5 00:33:45 10° S 00:37:23 20° SE 00:40:40 16° ESE
Cosmos 304 Rocket 4.0 00:33:53 10° S 00:38:19 43° ESE 00:40:28 26° NE
Cosmos 1763 Rocket 3.4 00:38:55 10° N 00:44:01 56° ENE 00:49:01 10° SSE
Delta 2 Rocket 3.6 00:41:31 10° WNW 00:45:29 60° SSW 00:47:16 29° SE
Cosmos 1464 Rocket 3.9 00:40:20 10° S 00:46:40 80° E 00:52:57 10° N
Cosmos 540 Rocket 3.6 00:41:49 10° N 00:46:46 48° ENE 00:51:40 10° SE
Cosmos 2151 Rocket 3.5 00:42:34 10° S 00:47:00 81° E 00:51:30 10° N
OAO 3 Rocket 3.3 00:43:15 10° W 00:47:50 58° N 00:49:21 38° NE
Cosmos 1400 Rocket 2.5 00:44:09 10° S 00:47:56 67° E 00:49:28 33° NNE
Cosmos 2251 Rocket 3.8 00:43:55 10° SSW 00:49:07 69° WNW 00:54:24 10° N
SL-19 R/B 4.0 00:48:23 10° SSE 00:53:37 64° ENE 00:58:45 10° N
Sich 1 Rocket 3.6 00:49:32 10° S 00:53:57 59° E 00:55:44 34° NNE
SJ-7 3.9 00:50:17 10° SSE 00:53:57 78° ENE 00:57:38 10° N
Centaur AC-119 4.1 00:49:28 10° WSW 00:55:57 64° S 01:00:28 30° ESE
Cosmos 2034 Rocket 3.9 00:51:56 10° S 00:57:58 62° E 01:04:06 10° NNE
IRAS Rocket 4.2 00:57:16 10° SSE 01:02:51 90° SW 01:08:26 10° NNW
Meteor 2-1 Rocket 4.3 00:58:34 10° S 01:04:15 59° E 01:07:22 27° NNE
Okean 1 Rocket 2.9 01:01:03 10° S 01:05:28 82° E 01:06:43 47° NNE
BlueWalker 3 3.4 01:05:35 10° SSW 01:07:23 25° S 01:07:23 25° S
H-2A R/B 2.5 01:08:07 10° W 01:10:48 25° SW 01:10:48 25° SW
DMSP B5D1-3 4.4 01:08:29 22° NNE 01:11:53 89° WNW 01:16:58 10° SSW
COSMO-SKYMED 1 4.2 01:09:08 10° N 01:12:45 31° WNW 01:16:23 10° SW
OAO 3 Copernicus 4.4 01:14:39 10° WNW 01:19:31 64° N 01:19:31 64° N
SL-4 R/B 4.1 01:22:08 10° WNW 01:24:54 21° SW 01:26:15 17° SSW
Cosmos 2278 Rocket 4.4 01:21:39 10° WSW 01:25:51 21° WNW 01:30:04 10° NNW
Cosmos 1932 4.5 01:20:30 10° SSW 01:26:46 80° WNW 01:28:51 46° NNE
Timation 1 Rocket 4.3 01:22:59 10° NNW 01:28:57 83° WSW 01:31:46 33° SSE
Cosmos 2082 Rocket 3.2 01:25:04 10° NNW 01:28:04 32° N 01:28:04 32° N
YAOGAN 1 3.9 01:26:53 10° SSW 01:30:51 38° W 01:34:49 10° NNW
Tiangong 1.0 01:29:28 10° WSW 01:30:49 14° SW 01:30:49 14° SW
OAO 2 Rocket 4.0 01:30:03 10° WNW 01:34:07 48° NW 01:34:07 48° NW
Cosmos 2369 Rocket 3.9 01:32:30 10° S 01:34:09 20° S 01:34:09 20° S
DELTA 2 R/B (1) 3.8 01:35:51 10° WSW 01:40:37 67° WSW 01:40:37 67° WSW
SJ 16-02 3.7 01:47:17 10° WSW 01:50:22 19° WNW 01:51:41 17° NW
Aurora 2 Rocket 4.4 01:53:28 10° WSW 02:03:00 57° S 02:03:07 57° S
ATLAS 5 CENTAUR R/B 4.3 02:03:44 10° WNW 02:07:48 22° WSW 02:12:25 10° SSW
SL-16 R/B 4.4 09:30:21 10° SE 09:32:31 22° SE 09:32:31 22° SE
SJ 16-02 4.3 10:20:12 10° NE 10:21:33 11° ENE 10:22:53 10° E
Cosmos 2056 Rocket 4.1 10:21:54 47° SE 10:22:59 56° ESE 10:28:15 10° NNE
Cosmos 2278 Rocket 2.3 10:25:22 71° E 10:25:22 71° E 10:30:48 10° SSE
USA 229 DEB 4.1 10:23:40 23° S 10:26:57 49° ESE 10:32:49 10° NE
USA 229 4.1 10:23:47 22° S 10:27:10 49° ESE 10:33:02 10° NE
Cosmos 1943 Rocket 2.3 10:28:04 67° SE 10:28:04 67° SE 10:32:50 10° SSE
Cosmos 407 Rocket 3.6 10:33:47 70° ENE 10:33:47 70° ENE 10:38:50 10° SSE
Cosmos 2016 Rocket 4.3 10:27:37 10° N 10:33:57 66° E 10:40:10 10° SSE
USA 267 3.8 10:35:39 10° NNE 10:40:54 39° NNW 10:40:54 39° NNW
Cosmos 1371 Rocket 3.9 10:41:00 50° S 10:42:26 85° ESE 10:47:45 10° NNE
Cosmos 1782 Rocket 4.2 10:42:02 37° NNE 10:43:22 52° E 10:47:34 10° SSE
ATLAS 3B R/B 2.9 10:40:17 10° SSW 10:47:31 79° ESE 10:55:17 10° NNE
Iridium 4 Rocket 3.2 10:47:38 61° NE 10:48:04 66° E 10:52:14 10° S
Cosmos 1300 Rocket 3.5 10:51:06 71° NE 10:51:26 77° E 10:55:42 10° S
FengYun 1-2 T 4.5 10:46:13 10° NNE 10:51:49 71° ESE 10:57:25 10° S
Delta 142 3.6 10:53:05 59° SSE 10:53:05 59° SSE 10:56:52 10° E
Chandra Rocket (1) 2.7 10:54:13 54° WSW 10:55:14 69° S 11:07:35 10° ESE
Cosmos 1459 Rocket 4.5 11:06:44 37° WSW 11:06:44 37° WSW 11:11:43 10° SSW
OAO 1 4.5 11:04:44 50° WNW 11:06:03 70° NNW 11:11:31 10° ENE
Cosmos 2242 Rocket 3.7 11:02:26 10° S 11:06:46 71° E 11:11:09 10° N
ATLAS CENTAUR Rocket 4.1 11:06:27 10° SSW 11:09:36 22° SSE 11:13:49 10° E
In-Cosmos 22 Rocket 4.4 11:07:00 10° S 11:12:47 79° E 11:18:35 10° N
NOAA 12 4.5 11:07:51 10° NNE 11:13:08 67° ESE 11:18:23 10° S
CZ-3 R/B 2.7 11:03:32 21° WSW 11:15:51 73° S 11:21:53 10° E
Cosmos 1624 Rocket 4.2 11:14:56 36° WSW 11:16:11 42° WNW 11:21:05 10° N
SL-16 R/B 4.0 11:15:12 10° SW 11:17:35 18° SW 11:17:35 18° SW
SL-16 R/B 2.3 11:17:39 10° SW 11:23:09 51° WNW 11:28:40 10° N
Cosmos 2251 Rocket 3.4 11:18:51 13° NNW 11:23:37 73° WSW 11:28:55 10° S
IUS-1 SRM-2 3.9 11:19:11 23° W 11:23:40 42° SSW 11:26:57 10° SE
Cosmos 2061 Rocket 3.9 11:21:01 10° NNW 11:27:10 69° W 11:33:18 10° S
Cosmos 1452 Rocket 4.0 11:26:55 10° S 11:32:03 63° ESE 11:37:12 10° NNE
H-2A R/B 1.8 11:31:29 34° WSW 11:32:16 52° S 11:37:36 10° ESE
Cosmos 2233 Rocket 4.1 11:30:14 10° NNW 11:36:14 50° W 11:42:10 10° SSW
Aureole 3 Rocket 4.5 11:31:38 10° N 11:37:39 78° E 11:45:55 10° S
Intelsat 5-2 Rocket 4.3 11:38:09 15° WSW 11:41:54 29° SSW 11:44:38 10° SE
Cosmos 1331 Rocket 3.9 11:40:25 10° SSW 11:45:38 71° WNW 11:50:53 10° N
Hubble Space Telescope 3.2 11:51:42 10° SSW 11:54:08 16° SSE 11:56:34 10° ESE
SKYMED 2 3.5 11:50:03 10° S 11:54:21 71° W 11:58:41 10° NNW
